Estación de La Cruz

Ultimos registro cada 15 minutos 64
Estación Fecha / Hora Temperatura Humedad Lluvia Velocidad Dirección Radiación Presion
64 La Cruz 08-05-2026 15:45 24 34,5 0 0 248 214,4 998,3
63 La Cruz 08-05-2026 15:30 24,2 35,2 0 0 250 204,4 998,4
62 La Cruz 08-05-2026 15:15 24,2 34,6 0 0,5 232 258,1 998,5
61 La Cruz 08-05-2026 15:00 23,8 35,3 0 0,5 223 490,6 998,5
60 La Cruz 08-05-2026 14:45 24 35,2 0 0 244 521,9 998,5
59 La Cruz 08-05-2026 14:30 24 36 0 0 213 551,9 998,9
58 La Cruz 08-05-2026 14:15 23,7 37,9 0 0 225 579,4 998,8
57 La Cruz 08-05-2026 14:00 23 39,1 0 0 167 593,1 999,1
56 La Cruz 08-05-2026 13:45 22,7 37,5 0 0 197 614,4 999,3
55 La Cruz 08-05-2026 13:30 22,1 38,1 0 0 212 624,4 999,6
54 La Cruz 08-05-2026 13:15 21,9 38,9 0 0 215 638,1 999,5
53 La Cruz 08-05-2026 13:00 22,2 42,2 0 0 209 645,6 999,7
52 La Cruz 08-05-2026 12:45 21,8 43,4 0 0 201 646,9 1000,2
51 La Cruz 08-05-2026 12:30 21,9 45,9 0 0 175 651,9 1000,4
50 La Cruz 08-05-2026 12:15 21,2 46,9 0 0 211 641,9 1000,6
49 La Cruz 08-05-2026 12:00 20,3 49,8 0 0 205 630,6 1000,5
48 La Cruz 08-05-2026 11:45 19,8 53,3 0 0 191 616,9 1000,9
47 La Cruz 08-05-2026 11:30 19 55,9 0 0 160 599,4 1001,2
46 La Cruz 08-05-2026 11:15 18,8 58,8 0 0 181 575,6 1001,5
45 La Cruz 08-05-2026 11:00 18,1 58,9 0 0 175 550,6 1001,6
44 La Cruz 08-05-2026 10:45 18,6 59,3 0 0 167 524,4 1001,7
43 La Cruz 08-05-2026 10:30 17,3 61,6 0 0 160 488,1 1002
42 La Cruz 08-05-2026 10:15 16,9 61,6 0 0 160 461,9 1002
41 La Cruz 08-05-2026 10:00 13,7 72,7 0 0 160 380,6 1002,1
40 La Cruz 08-05-2026 09:45 11,6 88,2 0 0 160 125,6 1001,9
39 La Cruz 08-05-2026 09:30 10,2 92,3 0 0 160 115,6 1001,9
38 La Cruz 08-05-2026 09:15 9,7 95,2 0 0 160 108,1 1002
37 La Cruz 08-05-2026 09:00 8,5 95,4 0 0 160 93,1 1002
36 La Cruz 08-05-2026 08:45 7,3 95,6 0 0 160 70,6 1001,9
35 La Cruz 08-05-2026 08:30 5,9 95,4 0 0 160 39,4 1002,1
34 La Cruz 08-05-2026 08:15 5,1 95,5 0 0 167 31,9 1001,9
33 La Cruz 08-05-2026 08:00 4,1 95,4 0 0 181 20,6 1002,1
32 La Cruz 08-05-2026 07:45 3,3 95,3 0 0 181 9,4 1002,3
31 La Cruz 08-05-2026 07:30 2,8 94,9 0 0 181 3,1 1002,4
30 La Cruz 08-05-2026 07:15 3,3 94,9 0 0 181 0,6 1002,4
29 La Cruz 08-05-2026 07:00 4,1 95,2 0 0 181 0,6 1002,2
28 La Cruz 08-05-2026 06:45 3,6 94,8 0 0 181 0,6 1002,1
27 La Cruz 08-05-2026 06:30 4 94,9 0 0 181 0,6 1002,2
26 La Cruz 08-05-2026 06:15 3,6 94,6 0 0 181 0,6 1002
25 La Cruz 08-05-2026 06:00 4 94,4 0 0 181 0,6 1002
24 La Cruz 08-05-2026 05:45 4,8 94,6 0 0 181 0,6 1001,8
23 La Cruz 08-05-2026 05:30 5 94,9 0 0 180 0,6 1001,7
22 La Cruz 08-05-2026 05:15 4,8 94,6 0 0 178 0,6 1001,5
21 La Cruz 08-05-2026 05:00 4,5 94,4 0 0 178 0,6 1001,3
20 La Cruz 08-05-2026 04:45 4,5 94 0 0 178 0,6 1001,3
19 La Cruz 08-05-2026 04:30 5,3 94,2 0 0 178 0,6 1001,5
18 La Cruz 08-05-2026 04:15 6 94,6 0 0 180 0,6 1001,5
17 La Cruz 08-05-2026 04:00 4,8 94,1 0 0 180 0,6 1001,8
16 La Cruz 08-05-2026 03:45 4,8 93,9 0 0 180 0,6 1002
15 La Cruz 08-05-2026 03:30 4,5 93,3 0 0 178 0,6 1002,2
14 La Cruz 08-05-2026 03:15 5 93,3 0 0 178 0,6 1002,3
13 La Cruz 08-05-2026 03:00 5,8 93,5 0 0 178 0,6 1002,4
12 La Cruz 08-05-2026 02:45 5,9 93,5 0 0 178 0,6 1002,2
11 La Cruz 08-05-2026 02:30 6 93,4 0 0 178 0,6 1002,3
10 La Cruz 08-05-2026 02:15 5,8 93,4 0 0 178 0,6 1002,8
9 La Cruz 08-05-2026 02:00 5,3 92,6 0 0 178 0,6 1002,9
8 La Cruz 08-05-2026 01:45 5,3 92 0 0 178 0,6 1003,1
7 La Cruz 08-05-2026 01:30 5,7 91,9 0 0 178 0,6 1003
6 La Cruz 08-05-2026 01:15 5,9 91,5 0 0 178 0,6 1003,3
5 La Cruz 08-05-2026 01:00 6,5 91,5 0 0 178 0,6 1003,4
4 La Cruz 08-05-2026 00:45 6,7 90,9 0 0 178 0,6 1003,2
3 La Cruz 08-05-2026 00:30 7,5 91,1 0 0 178 0,6 1003,4
2 La Cruz 08-05-2026 00:15 6,9 90,1 0 0 178 0,6 1003,2
1 La Cruz 08-05-2026 00:00 7,8 90,2 0 0 178 0,6 1003,5